Zurück zum Katalog

DELTA 1 DEB

AktivSSO
NORAD 12190·DEBRIS·🇺🇸 United States

Gestartet Mar 5, 1978 von Vandenberg Space Force Base

Loading…

Nächste Überflüge (nächste 24 Stunden)

TLE

AktuellSource: Space-Track

Epoche: Sep 14, 2026, 15:40 UTC

1 12190U 78026AF  26257.65346630 -.00000042  00000-0  20609-5 0  9990
2 12190  99.0981 213.5298 0018444 352.1363 183.6053 14.02515641329329

Verfolge DELTA 1 DEB in Echtzeit mit AllMySat

Download on the App Store